,,Stat5,,Stat1,,Stat2,,Stat3,,Stat4,,Wind1,,Wind1,
time,status,PA1M_AVG,status,PR1M_SUM,status,RH1M_AVG,status,SR1M_AVG,status,TA1M_AVG,status,W1dAve1m,status,W1sAve1m,
2001-03-09, 00:00:01,VALID,918.539,VALID,0,VALID,97.3134,VALID,-0.0169808,VALID,18.2106,VALID,343,VALID,0.489865,
2001-03-09, 00:01:01,VALID,918.543,VALID,0,VALID,97.4443,VALID,-0.0339617,VALID,18.2263,VALID,322,VALID,0.418497,
2001-03-09, 00:02:01,VALID,918.532,VALID,0,VALID,97.5206,VALID,-0.0509425,VALID,18.2102,VALID,31,VALID,0.352163,
2001-03-09, 00:03:01,VALID,918.513,VALID,0,VALID,97.5753,VALID,-0.0849042,VALID,18.2106,VALID,63,VALID,0.403927,
2001-03-09, 00:04:01,VALID,918.483,VALID,0,VALID,97.4876,VALID,-0.0849042,VALID,18.2291,VALID,94,VALID,0.91324,
2001-03-09, 00:05:01,VALID,918.467,VALID,0,VALID,97.4939,VALID,-0.0849042,VALID,18.2849,VALID,74,VALID,0.670351,
2001-03-09, 00:06:01,VALID,918.45,VALID,0,VALID,97.265,VALID,0.0339617,VALID,18.3034,VALID,85,VALID,0.597656,
2001-03-09, 00:07:01,VALID,918.428,VALID,0,VALID,97.2905,VALID,0.0169808,VALID,18.3031,VALID,339,VALID,0.389623,
2001-03-09, 00:08:01,VALID,918.432,VALID,0,VALID,97.307,VALID,0.0169808,VALID,18.287,VALID,309,VALID,0.583676,
2001-03-09, 00:09:01,VALID,918.417,VALID,0,VALID,97.471,VALID,0,VALID,18.2415,VALID,312,VALID,0.272294,
2001-03-09, 00:10:01,VALID,918.412,VALID,0,VALID,97.6363,VALID,0,VALID,18.2321,VALID,323,VALID,0.16139,
2001-03-09, 00:11:01,VALID,918.382,VALID,0,VALID,97.7838,VALID,0.0339617,VALID,18.209,VALID,323,VALID,0,
2001-03-09, 00:12:01,VALID,918.363,VALID,0,VALID,97.9708,VALID,0.0679233,VALID,18.203,VALID,325,VALID,0,
2001-03-09, 00:13:01,VALID,918.363,VALID,0,VALID,98.0382,VALID,0.0169808,VALID,18.203,VALID,313,VALID,0,
2001-03-09, 00:14:01,VALID,918.345,VALID,0,VALID,98.1145,VALID,0,VALID,18.1843,VALID,309,VALID,0,
2001-03-09, 00:15:01,VALID,918.329,VALID,0,VALID,98.1463,VALID,0.0339617,VALID,18.1544,VALID,309,VALID,0,
2001-03-09, 00:16:01,VALID,918.317,VALID,0,VALID,98.1958,VALID,0,VALID,18.1288,VALID,310,VALID,0,
2001-03-09, 00:17:01,VALID,918.323,VALID,0,VALID,98.2849,VALID,0.0169808,VALID,18.1357,VALID,311,VALID,0,
2001-03-09, 00:18:01,VALID,918.322,VALID,0,VALID,98.4031,VALID,0.0169808,VALID,18.1285,VALID,336,VALID,0,
2001-03-09, 00:19:01,VALID,918.325,VALID,0,VALID,98.4654,VALID,0.0169808,VALID,18.1382,VALID,345,VALID,0,
2001-03-09, 00:20:01,VALID,918.329,VALID,0,VALID,98.4527,VALID,0.0169808,VALID,18.1221,VALID,40,VALID,0,
2001-03-09, 00:21:01,VALID,918.32,VALID,0,VALID,98.487,VALID,0.0169808,VALID,18.1188,VALID,39,VALID,0,
2001-03-09, 00:22:01,VALID,918.324,VALID,0,VALID,98.4934,VALID,0.0169808,VALID,18.1094,VALID,320,VALID,0,
2001-03-09, 00:23:01,VALID,918.32,VALID,0,VALID,98.5137,VALID,0.0169808,VALID,18.1031,VALID,294,VALID,0,
2001-03-09, 00:24:01,VALID,918.33,VALID,0,VALID,98.5303,VALID,0,VALID,18.09,VALID,280,VALID,0,
2001-03-09, 00:25:01,VALID,918.334,VALID,0,VALID,98.5633,VALID,0.0169808,VALID,18.0831,VALID,280,VALID,0,
2001-03-09, 00:26:00,VALID,918.347,VALID,0,VALID,98.6002,VALID,0,VALID,18.0997,VALID,280,VALID,0,
2001-03-09, 00:27:00,VALID,918.328,VALID,0,VALID,98.6256,VALID,0,VALID,18.1096,VALID,280,VALID,0,
2001-03-09, 00:28:00,VALID,918.334,VALID,0,VALID,98.66,VALID,0.0169808,VALID,18.1124,VALID,280,VALID,0,
2001-03-09, 00:29:00,VALID,918.337,VALID,0,VALID,98.707,VALID,0,VALID,18.1255,VALID,282,VALID,0,
2001-03-09, 00:30:00,VALID,918.331,VALID,0,VALID,98.749,VALID,0,VALID,18.1481,VALID,294,VALID,0,
2001-03-09, 00:31:00,VALID,918.316,VALID,0,VALID,98.7312,VALID,0,VALID,18.1389,VALID,332,VALID,0,
2001-03-09, 00:32:00,VALID,918.325,VALID,0,VALID,98.7223,VALID,0,VALID,18.1191,VALID,328,VALID,0,
2001-03-09, 00:33:00,VALID,918.303,VALID,0,VALID,98.7312,VALID,0,VALID,18.1092,VALID,332,VALID,0,
2001-03-09, 00:34:00,VALID,918.268,VALID,0,VALID,98.7414,VALID,0,VALID,18.1126,VALID,354,VALID,0,
2001-03-09, 00:35:00,VALID,918.266,VALID,0,VALID,98.7579,VALID,0,VALID,18.1128,VALID,319,VALID,0.171875,
2001-03-09, 00:36:00,VALID,918.253,VALID,0,VALID,98.7465,VALID,-0.101885,VALID,18.0976,VALID,322,VALID,0.605997,
2001-03-09, 00:37:00,VALID,918.252,VALID,0,VALID,98.7363,VALID,-0.101885,VALID,18.0946,VALID,337,VALID,0.294341,
2001-03-09, 00:38:00,VALID,918.234,VALID,0,VALID,98.7859,VALID,-0.101885,VALID,18.1174,VALID,93,VALID,0.685855,
2001-03-09, 00:39:00,VALID,918.199,VALID,0,VALID,98.8342,VALID,-0.101885,VALID,18.1495,VALID,98,VALID,0.647104,
2001-03-09, 00:40:00,VALID,918.186,VALID,0,VALID,98.866,VALID,-0.101885,VALID,18.1557,VALID,140,VALID,0.0199424,
2001-03-09, 00:41:00,VALID,918.185,VALID,0,VALID,98.8444,VALID,-0.101885,VALID,18.1495,VALID,272,VALID,0.706209,
2001-03-09, 00:42:00,VALID,918.202,VALID,0.2,VALID,98.8139,VALID,-0.118866,VALID,18.1366,VALID,264,VALID,0.833116,
2001-03-09, 00:43:00,VALID,918.182,VALID,0,VALID,98.7833,VALID,-0.101885,VALID,18.1271,VALID,248,VALID,0.316301,
2001-03-09, 00:44:00,VALID,918.179,VALID,0,VALID,98.8494,VALID,-0.0849042,VALID,18.1368,VALID,146,VALID,0.425446,
2001-03-09, 00:45:00,VALID,918.137,VALID,0,VALID,98.8978,VALID,-0.118866,VALID,18.179,VALID,98,VALID,0.949836,
2001-03-09, 00:46:00,VALID,918.121,VALID,0,VALID,98.899,VALID,-0.101885,VALID,18.1986,VALID,94,VALID,1.10114,
2001-03-09, 00:47:00,VALID,918.097,VALID,0,VALID,98.8736,VALID,-0.118866,VALID,18.1728,VALID,44,VALID,0.725123,
2001-03-09, 00:48:00,VALID,918.096,VALID,0,VALID,98.7706,VALID,-0.152827,VALID,18.1204,VALID,326,VALID,0.379012,
2001-03-09, 00:49:00,VALID,918.101,VALID,0,VALID,98.7439,VALID,-0.101885,VALID,18.1334,VALID,304,VALID,0.0783203,
2001-03-09, 00:50:00,VALID,918.089,VALID,0,VALID,98.7261,VALID,-0.101885,VALID,18.1204,VALID,303,VALID,0.045847,
2001-03-09, 00:51:00,VALID,918.045,VALID,0,VALID,98.7058,VALID,0.0169808,VALID,18.1484,VALID,73,VALID,0.150174,
2001-03-09, 00:52:00,VALID,918.016,VALID,0,VALID,98.6829,VALID,0,VALID,18.1583,VALID,85,VALID,0.0909288,
2001-03-09, 00:53:00,VALID,918.019,VALID,0,VALID,98.6473,VALID,-0.0169808,VALID,18.1449,VALID,3,VALID,0.223067,
2001-03-09, 00:54:00,VALID,918.009,VALID,0,VALID,98.6117,VALID,0,VALID,18.1417,VALID,355,VALID,0.44375,
2001-03-09, 00:55:00,VALID,918.003,VALID,0,VALID,98.571,VALID,-0.0169808,VALID,18.1223,VALID,30,VALID,0.631055,
2001-03-09, 00:56:00,VALID,917.999,VALID,0,VALID,98.5061,VALID,0,VALID,18.1098,VALID,68,VALID,0.314503,
2001-03-09, 00:57:00,VALID,917.978,VALID,0,VALID,98.4998,VALID,0,VALID,18.1059,VALID,43,VALID,0.239309,
2001-03-09, 00:58:00,VALID,917.976,VALID,0,VALID,98.5176,VALID,0,VALID,18.1193,VALID,305,VALID,0.401316,
2001-03-09, 00:59:00,VALID,917.977,VALID,0,VALID,98.5646,VALID,0.0169808,VALID,18.1089,VALID,287,VALID,0.22207,
2001-03-09, 01:00:00,VALID,917.957,VALID,0,VALID,98.6193,VALID,0.0169808,VALID,18.1318,VALID,286,VALID,0,
2001-03-09, 01:01:00,VALID,917.92,VALID,0,VALID,98.6905,VALID,0,VALID,18.1546,VALID,288,VALID,0.082648,
2001-03-09, 01:02:00,VALID,917.896,VALID,0,VALID,98.7566,VALID,0,VALID,18.1772,VALID,183,VALID,0.508024,
2001-03-09, 01:03:00,VALID,917.878,VALID,0,VALID,98.8062,VALID,0,VALID,18.2095,VALID,124,VALID,0.280165,
2001-03-09, 01:04:00,VALID,917.859,VALID,0,VALID,98.8037,VALID,0,VALID,18.2132,VALID,124,VALID,0.0180804,
2001-03-09, 01:05:00,VALID,917.859,VALID,0,VALID,98.8075,VALID,0,VALID,18.2164,VALID,124,VALID,0,
2001-03-09, 01:06:00,VALID,917.853,VALID,0,VALID,98.8139,VALID,-0.0339617,VALID,18.2205,VALID,124,VALID,0,
2001-03-09, 01:07:00,VALID,917.853,VALID,0,VALID,98.8418,VALID,-0.0679233,VALID,18.2134,VALID,124,VALID,0,
2001-03-09, 01:08:00,VALID,917.826,VALID,0,VALID,98.8571,VALID,-0.0679233,VALID,18.2139,VALID,124,VALID,0,
2001-03-09, 01:09:00,VALID,917.816,VALID,0,VALID,98.8889,VALID,-0.0849042,VALID,18.2399,VALID,124,VALID,0.0266768,
2001-03-09, 01:10:00,VALID,917.809,VALID,0,VALID,98.9054,VALID,-0.0679233,VALID,18.2432,VALID,124,VALID,0,
2001-03-09, 01:11:00,VALID,917.797,VALID,0,VALID,98.8762,VALID,-0.101885,VALID,18.23,VALID,119,VALID,0.534334,
2001-03-09, 01:12:00,VALID,917.783,VALID,0,VALID,98.8876,VALID,-0.0679233,VALID,18.227,VALID,105,VALID,0.539497,
2001-03-09, 01:13:00,VALID,917.766,VALID,0,VALID,98.8851,VALID,-0.0679233,VALID,18.2106,VALID,89,VALID,0.656883,
2001-03-09, 01:14:00,VALID,917.755,VALID,0,VALID,98.8952,VALID,-0.0679233,VALID,18.1943,VALID,91,VALID,0.171429,
2001-03-09, 01:15:00,VALID,917.757,VALID,0,VALID,98.9067,VALID,-0.0509425,VALID,18.2042,VALID,91,VALID,0.0485197,
2001-03-09, 01:16:00,VALID,917.742,VALID,0,VALID,98.8914,VALID,-0.0849042,VALID,18.1917,VALID,216,VALID,0.448269,
2001-03-09, 01:17:00,VALID,917.725,VALID,0,VALID,98.8533,VALID,-0.0509425,VALID,18.162,VALID,267,VALID,0.32278,
2001-03-09, 01:18:00,VALID,917.709,VALID,0,VALID,98.8367,VALID,-0.0679233,VALID,18.1396,VALID,269,VALID,0.0439189,
2001-03-09, 01:19:00,VALID,917.689,VALID,0,VALID,98.8215,VALID,-0.0679233,VALID,18.1073,VALID,285,VALID,0.0546875,
2001-03-09, 01:20:00,VALID,917.67,VALID,0,VALID,98.8355,VALID,-0.0339617,VALID,18.0971,VALID,284,VALID,0.308799,
2001-03-09, 01:21:00,VALID,917.66,VALID,0,VALID,98.8342,VALID,0.0679233,VALID,18.1027,VALID,264,VALID,0.404297,
2001-03-09, 01:22:00,VALID,917.636,VALID,0,VALID,98.8227,VALID,0.0509425,VALID,18.0865,VALID,259,VALID,0.0653212,
2001-03-09, 01:23:00,VALID,917.602,VALID,0,VALID,98.838,VALID,0.0509425,VALID,18.0995,VALID,38,VALID,0.599301,
2001-03-09, 01:24:00,VALID,917.555,VALID,0,VALID,98.7935,VALID,0.0339617,VALID,18.093,VALID,76,VALID,0.938839,
2001-03-09, 01:25:00,VALID,917.524,VALID,0,VALID,98.7248,VALID,0.0169808,VALID,18.0769,VALID,63,VALID,0.382031,
2001-03-09, 01:26:00,VALID,917.511,VALID,0,VALID,98.6295,VALID,0.0169808,VALID,18.0605,VALID,55,VALID,0.0723157,
2001-03-09, 01:27:00,VALID,917.48,VALID,0,VALID,98.6206,VALID,0.0509425,VALID,18.0699,VALID,96,VALID,0.621505,
2001-03-09, 01:28:00,VALID,917.461,VALID,0,VALID,98.6218,VALID,0,VALID,18.0831,VALID,95,VALID,0.941612,
2001-03-09, 01:29:00,VALID,917.456,VALID,0,VALID,98.5875,VALID,0,VALID,18.0771,VALID,97,VALID,0.587305,
2001-03-09, 01:30:00,VALID,917.458,VALID,0,VALID,98.5608,VALID,0,VALID,18.0706,VALID,98,VALID,0.940995,
2001-03-09, 01:31:00,VALID,917.429,VALID,0,VALID,98.482,VALID,0.0509425,VALID,18.0609,VALID,87,VALID,1.2058,
2001-03-09, 01:32:00,VALID,917.41,VALID,0,VALID,98.4336,VALID,0,VALID,18.051,VALID,78,VALID,0.689823,
2001-03-09, 01:33:00,VALID,917.401,VALID,0,VALID,98.3726,VALID,0.0509425,VALID,18.0317,VALID,75,VALID,0.439887,
2001-03-09, 01:34:00,VALID,917.386,VALID,0,VALID,98.351,VALID,0.0339617,VALID,18.022,VALID,83,VALID,0.477455,
2001-03-09, 01:35:00,VALID,917.373,VALID,0,VALID,98.398,VALID,0,VALID,18.0383,VALID,99,VALID,0.421503,
2001-03-09, 01:36:00,VALID,917.336,VALID,0,VALID,98.4311,VALID,0.0509425,VALID,18.0483,VALID,100,VALID,1.06102,
2001-03-09, 01:37:00,VALID,917.312,VALID,0,VALID,98.4451,VALID,0.0339617,VALID,18.0513,VALID,99,VALID,1.49704,
2001-03-09, 01:38:00,VALID,917.327,VALID,0,VALID,98.4476,VALID,0.0509425,VALID,18.0413,VALID,105,VALID,1.06106,
2001-03-09, 01:39:00,VALID,917.341,VALID,0,VALID,98.4972,VALID,0.0169808,VALID,18.0448,VALID,131,VALID,0.0625,
2001-03-09, 01:40:00,VALID,917.343,VALID,0,VALID,98.4998,VALID,0.0169808,VALID,18.0483,VALID,140,VALID,0.349507,
2001-03-09, 01:41:00,VALID,917.352,VALID,0,VALID,98.5265,VALID,0.0509425,VALID,18.028,VALID,108,VALID,0.575247,
2001-03-09, 01:42:00,VALID,917.353,VALID,0,VALID,98.5786,VALID,0.0339617,VALID,18.0577,VALID,107,VALID,0.458116,
2001-03-09, 01:43:00,VALID,917.356,VALID,0,VALID,98.6091,VALID,0.0509425,VALID,18.0508,VALID,102,VALID,0.587204,
2001-03-09, 01:44:00,VALID,917.352,VALID,0,VALID,98.6333,VALID,0.0169808,VALID,18.0741,VALID,99,VALID,0.612723,
2001-03-09, 01:45:00,VALID,917.34,VALID,0,VALID,98.6256,VALID,0.0169808,VALID,18.0609,VALID,94,VALID,0.85259,
2001-03-09, 01:46:00,VALID,917.361,VALID,0,VALID,98.5824,VALID,0.0169808,VALID,18.0607,VALID,83,VALID,0.150971,
2001-03-09, 01:47:00,VALID,917.381,VALID,0,VALID,98.5455,VALID,0.0509425,VALID,18.0639,VALID,83,VALID,0,
2001-03-09, 01:48:00,VALID,917.352,VALID,0,VALID,98.482,VALID,0,VALID,18.0709,VALID,83,VALID,0,
2001-03-09, 01:49:00,VALID,917.364,VALID,0,VALID,98.4883,VALID,0.0679233,VALID,18.0868,VALID,83,VALID,0,
2001-03-09, 01:50:00,VALID,917.351,VALID,0,VALID,98.4438,VALID,0.0849042,VALID,18.0896,VALID,69,VALID,0.480469,
2001-03-09, 01:51:00,VALID,917.342,VALID,0,VALID,98.3001,VALID,-0.0509425,VALID,18.1135,VALID,80,VALID,1.16884,
2001-03-09, 01:52:00,VALID,917.33,VALID,0,VALID,98.1513,VALID,-0.101885,VALID,18.156,VALID,91,VALID,1.78928,
2001-03-09, 01:53:00,VALID,917.264,VALID,0,VALID,98.0102,VALID,-0.0509425,VALID,18.1853,VALID,96,VALID,2.19901,
2001-03-09, 01:54:00,VALID,917.235,VALID,0,VALID,97.8741,VALID,-0.0849042,VALID,18.1945,VALID,86,VALID,1.48728,
2001-03-09, 01:55:00,VALID,917.231,VALID,0,VALID,97.8398,VALID,-0.0849042,VALID,18.2109,VALID,96,VALID,0.767969,
2001-03-09, 01:56:00,VALID,917.222,VALID,0,VALID,97.8525,VALID,-0.0679233,VALID,18.2233,VALID,97,VALID,0.0733173,
2001-03-09, 01:57:00,VALID,917.235,VALID,0,VALID,97.8296,VALID,-0.0509425,VALID,18.2235,VALID,97,VALID,0,
2001-03-09, 01:58:00,VALID,917.227,VALID,0,VALID,97.8309,VALID,-0.0679233,VALID,18.2369,VALID,97,VALID,0.035773,
2001-03-09, 01:59:00,VALID,917.196,VALID,0,VALID,97.8004,VALID,-0.0509425,VALID,18.2337,VALID,101,VALID,0.107813,
2001-03-09, 02:00:00,VALID,917.195,VALID,0,VALID,97.7432,VALID,-0.0849042,VALID,18.2106,VALID,202,VALID,0.14741,
2001-03-09, 02:01:00,VALID,917.204,VALID,0,VALID,97.7813,VALID,-0.0679233,VALID,18.2139,VALID,299,VALID,0.51912,
2001-03-09, 02:02:00,VALID,917.182,VALID,0,VALID,97.7508,VALID,-0.101885,VALID,18.2012,VALID,359,VALID,0.517525,
2001-03-09, 02:03:00,VALID,917.154,VALID,0,VALID,97.8195,VALID,-0.0679233,VALID,18.2203,VALID,98,VALID,0.575955,
2001-03-09, 02:04:00,VALID,917.138,VALID,0,VALID,97.8258,VALID,-0.101885,VALID,18.2498,VALID,88,VALID,1.14888,
2001-03-09, 02:05:00,VALID,917.12,VALID,0,VALID,97.7419,VALID,-0.0679233,VALID,18.2496,VALID,108,VALID,0.955543,
2001-03-09, 02:06:00,VALID,917.127,VALID,0,VALID,97.6287,VALID,0.0339617,VALID,18.2674,VALID,55,VALID,0.254434,
2001-03-09, 02:07:00,VALID,917.139,VALID,0,VALID,97.4024,VALID,0.0339617,VALID,18.254,VALID,318,VALID,0.772382,
2001-03-09, 02:08:00,VALID,917.128,VALID,0,VALID,97.4024,VALID,0.0509425,VALID,18.2708,VALID,50,VALID,0.592311,
2001-03-09, 02:09:00,VALID,917.09,VALID,0,VALID,97.6134,VALID,0.0339617,VALID,18.3061,VALID,98,VALID,1.72809,
2001-03-09, 02:10:00,VALID,917.018,VALID,0,VALID,97.5842,VALID,0.0339617,VALID,18.3034,VALID,89,VALID,1.88158,
2001-03-09, 02:11:00,VALID,917.008,VALID,0,VALID,97.5969,VALID,0,VALID,18.2741,VALID,91,VALID,0.705592,
2001-03-09, 02:12:00,VALID,917.009,VALID,0,VALID,97.5753,VALID,0,VALID,18.2549,VALID,86,VALID,0.565755,
2001-03-09, 02:13:00,VALID,917.021,VALID,0,VALID,97.5524,VALID,0,VALID,18.2418,VALID,4,VALID,0.322424,
2001-03-09, 02:14:00,VALID,917.028,VALID,0,VALID,97.4647,VALID,0,VALID,18.2383,VALID,322,VALID,0.0571429,
2001-03-09, 02:15:00,VALID,917.027,VALID,0,VALID,97.4532,VALID,0,VALID,18.245,VALID,11,VALID,0.203742,
2001-03-09, 02:16:00,VALID,917.031,VALID,0,VALID,97.5194,VALID,0.0339617,VALID,18.2676,VALID,129,VALID,0.188133,
2001-03-09, 02:17:00,VALID,917.013,VALID,0,VALID,97.4876,VALID,0,VALID,18.2572,VALID,252,VALID,0.0485197,
2001-03-09, 02:18:00,VALID,916.983,VALID,0,VALID,97.3744,VALID,0.0339617,VALID,18.2644,VALID,265,VALID,0.00316723,
2001-03-09, 02:19:00,VALID,916.97,VALID,0,VALID,97.2892,VALID,0.0169808,VALID,18.2609,VALID,17,VALID,0.394336,
2001-03-09, 02:20:00,VALID,916.951,VALID,0,VALID,97.2714,VALID,0.0169808,VALID,18.2609,VALID,62,VALID,0.277961,
2001-03-09, 02:21:00,VALID,916.926,VALID,0,VALID,97.2587,VALID,0.0339617,VALID,18.257,VALID,78,VALID,0.471137,
2001-03-09, 02:22:00,VALID,916.909,VALID,0,VALID,97.2396,VALID,0.101885,VALID,18.2671,VALID,76,VALID,0.470269,
2001-03-09, 02:23:00,VALID,916.904,VALID,0,VALID,97.1722,VALID,0.0339617,VALID,18.2547,VALID,61,VALID,0.517681,
2001-03-09, 02:24:00,VALID,916.887,VALID,0,VALID,97.2104,VALID,0,VALID,18.2413,VALID,88,VALID,0.779688,
2001-03-09, 02:25:00,VALID,916.852,VALID,0,VALID,97.2142,VALID,0.0339617,VALID,18.2385,VALID,99,VALID,0.811523,
2001-03-09, 02:26:00,VALID,916.836,VALID,0,VALID,97.2638,VALID,0.0169808,VALID,18.2418,VALID,106,VALID,0.437901,
2001-03-09, 02:27:00,VALID,916.837,VALID,0,VALID,97.279,VALID,0.0169808,VALID,18.2157,VALID,89,VALID,0.333676,
2001-03-09, 02:28:00,VALID,916.849,VALID,0,VALID,97.2587,VALID,0.0339617,VALID,18.2224,VALID,22,VALID,0.750411,
2001-03-09, 02:29:00,VALID,916.857,VALID,0,VALID,97.0743,VALID,0.0339617,VALID,18.2415,VALID,62,VALID,0.826172,
2001-03-09, 02:30:00,VALID,916.842,VALID,0,VALID,97.0934,VALID,0.0509425,VALID,18.251,VALID,93,VALID,1.2537,
2001-03-09, 02:31:00,VALID,916.8,VALID,0,VALID,97.1353,VALID,0.0169808,VALID,18.2545,VALID,93,VALID,1.17146,
2001-03-09, 02:32:00,VALID,916.808,VALID,0,VALID,97.0959,VALID,0.0169808,VALID,18.2708,VALID,67,VALID,0.885346,
2001-03-09, 02:33:00,VALID,916.808,VALID,0,VALID,96.9446,VALID,0.0509425,VALID,18.2743,VALID,21,VALID,0.688802,
2001-03-09, 02:34:00,VALID,916.819,VALID,0,VALID,96.9675,VALID,0.0169808,VALID,18.2708,VALID,15,VALID,0.46942,
2001-03-09, 02:35:00,VALID,916.806,VALID,0,VALID,96.9331,VALID,0.0679233,VALID,18.2475,VALID,8,VALID,0.771391,
2001-03-09, 02:36:00,VALID,916.796,VALID,0,VALID,96.9955,VALID,-0.0339617,VALID,18.2556,VALID,75,VALID,0.686233,
2001-03-09, 02:37:00,VALID,916.796,VALID,0,VALID,97.1875,VALID,-0.0509425,VALID,18.2556,VALID,75,VALID,0.803209,
2001-03-09, 02:38:00,VALID,916.785,VALID,0,VALID,97.2612,VALID,-0.101885,VALID,18.2528,VALID,89,VALID,0.7831,
2001-03-09, 02:39:00,VALID,916.767,VALID,0,VALID,97.3502,VALID,-0.0679233,VALID,18.2625,VALID,90,VALID,0.699505,
2001-03-09, 02:40:00,VALID,916.765,VALID,0,VALID,97.3858,VALID,-0.0849042,VALID,18.2365,VALID,58,VALID,0.790913,
2001-03-09, 02:41:00,VALID,916.77,VALID,0,VALID,97.41,VALID,-0.0849042,VALID,18.2365,VALID,85,VALID,1.13035,
2001-03-09, 02:42:00,VALID,916.724,VALID,0,VALID,97.4532,VALID,-0.0849042,VALID,18.2466,VALID,85,VALID,1.68663,
2001-03-09, 02:43:00,VALID,916.696,VALID,0,VALID,97.382,VALID,-0.0679233,VALID,18.2261,VALID,85,VALID,1.42188,
2001-03-09, 02:44:00,VALID,916.699,VALID,0,VALID,97.3451,VALID,-0.101885,VALID,18.2464,VALID,89,VALID,1.39732,
2001-03-09, 02:45:00,VALID,916.693,VALID,0,VALID,97.3642,VALID,-0.0679233,VALID,18.2235,VALID,74,VALID,1.07751,
2001-03-09, 02:46:00,VALID,916.694,VALID,0,VALID,97.3718,VALID,-0.0509425,VALID,18.2332,VALID,50,VALID,0.868032,
2001-03-09, 02:47:00,VALID,916.701,VALID,0,VALID,97.3757,VALID,-0.101885,VALID,18.2302,VALID,77,VALID,1.0882,
2001-03-09, 02:48:00,VALID,916.691,VALID,0,VALID,97.4418,VALID,-0.101885,VALID,18.2432,VALID,96,VALID,0.88049,
2001-03-09, 02:49:00,VALID,916.685,VALID,0,VALID,97.4952,VALID,-0.0679233,VALID,18.2466,VALID,78,VALID,0.658203,
2001-03-09, 02:50:00,VALID,916.687,VALID,0,VALID,97.4761,VALID,-0.0849042,VALID,18.236,VALID,72,VALID,0.256579,
2001-03-09, 02:51:00,VALID,916.679,VALID,0,VALID,97.5283,VALID,0.0509425,VALID,18.2319,VALID,80,VALID,0.210503,
2001-03-09, 02:52:00,VALID,916.668,VALID,0,VALID,97.6821,VALID,0,VALID,18.2409,VALID,99,VALID,0.348307,
2001-03-09, 02:53:00,VALID,916.668,VALID,0,VALID,97.7279,VALID,0.0169808,VALID,18.2441,VALID,66,VALID,0.625868,
2001-03-09, 02:54:00,VALID,916.671,VALID,0,VALID,97.6961,VALID,0.0169808,VALID,18.2413,VALID,51,VALID,0.454241,
2001-03-09, 02:55:00,VALID,916.664,VALID,0,VALID,97.7139,VALID,0.0339617,VALID,18.2515,VALID,71,VALID,0.135937,
2001-03-09, 02:56:00,VALID,916.652,VALID,0,VALID,97.7711,VALID,0.0169808,VALID,18.2475,VALID,81,VALID,0.754607,
2001-03-09, 02:57:00,VALID,916.635,VALID,0,VALID,97.7838,VALID,0.0169808,VALID,18.2575,VALID,91,VALID,1.14741,
2001-03-09, 02:58:00,VALID,916.615,VALID,0,VALID,97.8118,VALID,0.0339617,VALID,18.287,VALID,81,VALID,0.867804,
2001-03-09, 02:59:00,VALID,916.599,VALID,0,VALID,97.7978,VALID,0.0169808,VALID,18.2766,VALID,85,VALID,0.726367,
2001-03-09, 03:00:00,VALID,916.581,VALID,0,VALID,97.8156,VALID,0.0169808,VALID,18.287,VALID,104,VALID,0.34375,
2001-03-09, 03:01:00,VALID,916.578,VALID,0,VALID,97.7953,VALID,0.0169808,VALID,18.2838,VALID,73,VALID,0.453742,
2001-03-09, 03:02:00,VALID,916.583,VALID,0,VALID,97.7864,VALID,0.0169808,VALID,18.2898,VALID,87,VALID,1.07158,
2001-03-09, 03:03:00,VALID,916.547,VALID,0,VALID,97.761,VALID,0.0169808,VALID,18.3029,VALID,88,VALID,1.47266,
2001-03-09, 03:04:00,VALID,916.537,VALID,0,VALID,97.6694,VALID,0.0169808,VALID,18.3057,VALID,89,VALID,1.20513,
2001-03-09, 03:05:00,VALID,916.538,VALID,0,VALID,97.6834,VALID,0,VALID,18.3061,VALID,95,VALID,0.816034,
2001-03-09, 03:06:00,VALID,916.543,VALID,0,VALID,97.6681,VALID,0.0509425,VALID,18.3158,VALID,78,VALID,0.716427,
2001-03-09, 03:07:00,VALID,916.533,VALID,0,VALID,97.7165,VALID,0.0169808,VALID,18.3091,VALID,96,VALID,1.01415,
2001-03-09, 03:08:00,VALID,916.531,VALID,0,VALID,97.761,VALID,0.0679233,VALID,18.3052,VALID,90,VALID,1.06661,
2001-03-09, 03:09:00,VALID,916.511,VALID,0,VALID,97.7533,VALID,0.0339617,VALID,18.322,VALID,59,VALID,0.616997,
2001-03-09, 03:10:00,VALID,916.537,VALID,0,VALID,97.6872,VALID,0.0339617,VALID,18.322,VALID,50,VALID,0.32278,
2001-03-09, 03:11:00,VALID,916.551,VALID,0,VALID,97.7177,VALID,0.0679233,VALID,18.3186,VALID,75,VALID,0.620477,
2001-03-09, 03:12:00,VALID,916.524,VALID,0,VALID,97.8652,VALID,0.0849042,VALID,18.3444,VALID,97,VALID,1.32444,
2001-03-09, 03:13:00,VALID,916.504,VALID,0,VALID,97.9657,VALID,0.0339617,VALID,18.3573,VALID,85,VALID,1.34565,
2001-03-09, 03:14:00,VALID,916.501,VALID,0,VALID,97.953,VALID,0.0679233,VALID,18.3608,VALID,30,VALID,0.210938,
2001-03-09, 03:15:00,VALID,916.494,VALID,0,VALID,97.9428,VALID,0.0339617,VALID,18.3483,VALID,32,VALID,0.322985,
2001-03-09, 03:16:00,VALID,916.479,VALID,0,VALID,97.9059,VALID,0.0679233,VALID,18.3414,VALID,348,VALID,0.225507,
2001-03-09, 03:17:00,VALID,916.46,VALID,0,VALID,97.9441,VALID,0.0509425,VALID,18.3675,VALID,93,VALID,0.804071,
2001-03-09, 03:18:00,VALID,916.459,VALID,0,VALID,97.9466,VALID,0.0849042,VALID,18.3733,VALID,89,VALID,0.452914,
2001-03-09, 03:19:00,VALID,916.476,VALID,0,VALID,97.9581,VALID,0.0679233,VALID,18.3869,VALID,92,VALID,0,
2001-03-09, 03:20:00,VALID,916.476,VALID,0,VALID,98.0077,VALID,0.0339617,VALID,18.3899,VALID,109,VALID,0.0131579,
2001-03-09, 03:21:00,VALID,916.461,VALID,0,VALID,98.0458,VALID,-0.0169808,VALID,18.4139,VALID,92,VALID,0.98329,
2001-03-09, 03:22:00,VALID,916.45,VALID,0,VALID,98.0496,VALID,-0.0849042,VALID,18.4169,VALID,95,VALID,0.859375,
2001-03-09, 03:23:00,VALID,916.443,VALID,0,VALID,98.07,VALID,-0.0509425,VALID,18.4136,VALID,121,VALID,0.193668,
2001-03-09, 03:24:00,VALID,916.435,VALID,0,VALID,98.1005,VALID,-0.0849042,VALID,18.4039,VALID,104,VALID,0.108929,
2001-03-09, 03:25:00,VALID,916.448,VALID,0,VALID,98.0674,VALID,-0.0679233,VALID,18.3843,VALID,28,VALID,0.311914,
2001-03-09, 03:26:00,VALID,916.43,VALID,0,VALID,98.0598,VALID,-0.0509425,VALID,18.3848,VALID,95,VALID,0.673478,
2001-03-09, 03:27:00,VALID,916.42,VALID,0,VALID,98.0534,VALID,-0.0509425,VALID,18.3975,VALID,89,VALID,0.97903,
2001-03-09, 03:28:00,VALID,915.986,VALID,0,VALID,98.0216,VALID,-0.0509425,VALID,18.3938,VALID,89,VALID,0.938734,
2001-03-09, 03:29:00,VALID,916.391,VALID,0,VALID,97.9911,VALID,-0.0679233,VALID,18.4069,VALID,92,VALID,1.40254,
2001-03-09, 03:30:00,VALID,916.377,VALID,0,VALID,97.9695,VALID,-0.0849042,VALID,18.4037,VALID,96,VALID,1.58388,
2001-03-09, 03:31:00,VALID,916.367,VALID,0,VALID,97.939,VALID,-0.0339617,VALID,18.4141,VALID,97,VALID,1.75576,
2001-03-09, 03:32:00,VALID,916.366,VALID,0,VALID,97.9225,VALID,-0.0509425,VALID,18.4201,VALID,83,VALID,1.16533,
2001-03-09, 03:33:00,VALID,916.364,VALID,0,VALID,97.8449,VALID,-0.0169808,VALID,18.4169,VALID,68,VALID,0.955946,
2001-03-09, 03:34:00,VALID,916.37,VALID,0,VALID,97.8106,VALID,-0.0339617,VALID,18.4007,VALID,50,VALID,0.495089,